Time,TemperatureF,DewpointF,PressureIn,WindDirection,WindDirectionDegrees,WindSpeedMPH,WindSpeedGustMPH,Humidity,HourlyPrecipIn,Conditions,Clouds,dailyrainin,SoftwareType,DateUTC
2013-01-10 00:00:00,34.7,23.8,29.09,NNW,338,3.6,3.6,64,0.00,,---,0.00,VWS V14.01,2013-01-10 05:00:00,
2013-01-10 00:01:00,34.5,23.6,29.09,WNW,292,2.0,3.6,64,0.00,,---,0.00,VWS V14.01,2013-01-10 05:01:00,
2013-01-10 00:06:00,34.2,24.4,29.09,WNW,292,2.7,2.7,67,0.00,,---,0.00,VWS V14.01,2013-01-10 05:06:00,
2013-01-10 00:11:00,34.0,24.5,29.09,West,270,2.5,2.5,68,0.00,,---,0.00,VWS V14.01,2013-01-10 05:11:00,
2013-01-10 00:16:00,34.0,24.5,29.09,NNE,22,2.7,2.7,68,0.00,,---,0.00,VWS V14.01,2013-01-10 05:16:00,
2013-01-10 00:21:00,33.8,24.7,29.12,NNE,22,3.4,3.4,69,0.00,,---,0.00,VWS V14.01,2013-01-10 05:21:00,
2013-01-10 00:26:00,33.8,25.1,29.12,NW,315,1.3,2.0,70,0.00,,---,0.00,VWS V14.01,2013-01-10 05:26:00,
2013-01-10 00:31:00,33.8,25.1,29.12,NNW,338,2.0,2.0,70,0.00,,---,0.00,VWS V14.01,2013-01-10 05:31:00,
2013-01-10 00:36:00,33.8,25.4,29.12,SSE,158,2.5,2.5,71,0.00,,---,0.00,VWS V14.01,2013-01-10 05:36:00,
2013-01-10 00:41:00,34.0,25.6,29.12,South,180,2.7,2.7,71,0.00,,---,0.00,VWS V14.01,2013-01-10 05:41:00,
2013-01-10 00:46:00,33.8,25.4,29.12,WSW,248,3.6,3.6,71,0.00,,---,0.00,VWS V14.01,2013-01-10 05:46:00,
2013-01-10 00:51:00,34.0,26.2,29.12,WSW,248,1.3,3.8,73,0.00,,---,0.00,VWS V14.01,2013-01-10 05:51:00,
2013-01-10 00:56:00,34.0,26.2,29.12,SW,225,2.5,2.7,73,0.00,,---,0.00,VWS V14.01,2013-01-10 05:56:00,
2013-01-10 01:01:00,34.2,26.1,29.12,WSW,248,3.4,3.4,72,0.00,,---,0.00,VWS V14.01,2013-01-10 06:01:00,
2013-01-10 01:06:00,34.2,26.1,29.12,NNW,338,5.8,5.8,72,0.00,,---,0.00,VWS V14.01,2013-01-10 06:06:00,
2013-01-10 01:11:00,34.3,26.3,29.14,SE,135,2.9,3.1,72,0.00,,---,0.00,VWS V14.01,2013-01-10 06:11:00,
2013-01-10 01:16:00,34.3,26.6,29.14,ENE,68,2.7,4.0,73,0.00,,---,0.00,VWS V14.01,2013-01-10 06:16:00,
2013-01-10 01:21:00,34.5,26.8,29.14,West,270,3.8,3.8,73,0.00,,---,0.00,VWS V14.01,2013-01-10 06:21:00,
2013-01-10 01:26:00,34.5,26.8,29.14,West,270,4.9,6.9,73,0.00,,---,0.00,VWS V14.01,2013-01-10 06:26:00,
2013-01-10 01:31:00,34.5,26.8,29.14,WNW,292,7.6,7.6,73,0.00,,---,0.00,VWS V14.01,2013-01-10 06:31:00,
2013-01-10 01:36:00,34.7,27.0,29.17,WNW,292,4.5,7.8,73,0.00,,---,0.00,VWS V14.01,2013-01-10 06:36:00,
2013-01-10 01:41:00,34.7,26.6,29.17,SSE,158,3.4,3.6,72,0.00,,---,0.00,VWS V14.01,2013-01-10 06:41:00,
2013-01-10 01:46:00,34.7,26.6,29.17,West,270,6.0,6.0,72,0.00,,---,0.00,VWS V14.01,2013-01-10 06:46:00,
2013-01-10 01:51:00,34.9,26.8,29.17,WNW,292,2.9,4.0,72,0.00,,---,0.00,VWS V14.01,2013-01-10 06:51:00,
2013-01-10 01:56:00,34.7,26.6,29.17,NNW,338,3.1,3.1,72,0.00,,---,0.00,VWS V14.01,2013-01-10 06:56:00,
2013-01-10 02:01:00,34.7,26.3,29.17,ESE,112,4.9,4.9,71,0.00,,---,0.00,VWS V14.01,2013-01-10 07:01:00,
2013-01-10 02:06:00,34.9,26.5,29.17,WSW,248,4.9,12.1,71,0.00,,---,0.00,VWS V14.01,2013-01-10 07:06:00,
2013-01-10 02:11:00,34.9,26.5,29.20,WSW,248,2.5,2.5,71,0.00,,---,0.00,VWS V14.01,2013-01-10 07:11:00,
2013-01-10 02:16:00,34.7,26.3,29.20,NE,45,1.6,2.7,71,0.00,,---,0.00,VWS V14.01,2013-01-10 07:16:00,
2013-01-10 02:20:00,34.9,26.5,29.20,SSW,202,2.7,7.2,71,0.00,,---,0.00,VWS V14.01,2013-01-10 07:20:00,
2013-01-10 02:25:00,34.9,26.5,29.20,South,180,1.6,1.6,71,0.00,,---,0.00,VWS V14.01,2013-01-10 07:25:00,
2013-01-10 02:30:00,34.9,26.1,29.20,NNE,22,4.0,4.0,70,0.00,,---,0.00,VWS V14.01,2013-01-10 07:30:00,
2013-01-10 02:35:00,34.9,26.1,29.23,West,270,3.1,5.8,70,0.00,,---,0.00,VWS V14.01,2013-01-10 07:35:00,
2013-01-10 02:40:00,34.9,25.8,29.23,South,180,4.0,4.0,69,0.00,,---,0.00,VWS V14.01,2013-01-10 07:40:00,
2013-01-10 02:45:00,34.7,25.9,29.23,NNW,338,2.9,2.9,70,0.00,,---,0.00,VWS V14.01,2013-01-10 07:45:00,
2013-01-10 02:50:00,34.9,25.8,29.23,WSW,248,3.4,6.7,69,0.00,,---,0.00,VWS V14.01,2013-01-10 07:50:00,
2013-01-10 02:55:00,34.9,25.4,29.23,WSW,248,3.4,3.4,68,0.00,,---,0.00,VWS V14.01,2013-01-10 07:55:00,
2013-01-10 03:00:00,34.9,25.4,29.23,WSW,248,2.0,2.0,68,0.00,,---,0.00,VWS V14.01,2013-01-10 08:00:00,
2013-01-10 03:05:00,35.1,25.2,29.23,WNW,292,2.5,2.5,67,0.00,,---,0.00,VWS V14.01,2013-01-10 08:05:00,
2013-01-10 03:10:00,35.1,25.2,29.23,WSW,248,4.0,4.0,67,0.00,,---,0.00,VWS V14.01,2013-01-10 08:10:00,
2013-01-10 03:15:00,34.9,25.0,29.26,WSW,248,2.9,2.9,67,0.00,,---,0.00,VWS V14.01,2013-01-10 08:15:00,
2013-01-10 03:20:00,34.9,25.0,29.26,NNW,338,6.5,6.5,67,0.00,,---,0.00,VWS V14.01,2013-01-10 08:20:00,
2013-01-10 03:25:00,35.1,24.5,29.26,WSW,248,2.5,2.5,65,0.00,,---,0.00,VWS V14.01,2013-01-10 08:25:00,
2013-01-10 03:30:00,34.9,24.7,29.26,South,180,3.1,3.1,66,0.00,,---,0.00,VWS V14.01,2013-01-10 08:30:00,
2013-01-10 03:35:00,34.9,24.3,29.29,WNW,292,6.5,6.5,65,0.00,,---,0.00,VWS V14.01,2013-01-10 08:35:00,
2013-01-10 03:40:00,34.9,24.3,29.29,ENE,68,5.6,8.7,65,0.00,,---,0.00,VWS V14.01,2013-01-10 08:40:00,
2013-01-10 03:45:00,34.9,24.3,29.29,WNW,292,4.0,4.0,65,0.00,,---,0.00,VWS V14.01,2013-01-10 08:45:00,
2013-01-10 03:50:00,34.9,24.3,29.29,WNW,292,5.4,5.4,65,0.00,,---,0.00,VWS V14.01,2013-01-10 08:50:00,
2013-01-10 03:55:00,34.9,24.0,29.29,West,270,7.2,7.2,64,0.00,,---,0.00,VWS V14.01,2013-01-10 08:55:00,
2013-01-10 04:00:00,34.9,23.6,29.29,West,270,8.7,8.7,63,0.00,,---,0.00,VWS V14.01,2013-01-10 09:00:00,
2013-01-10 04:05:00,35.1,23.0,29.32,WNW,292,4.7,4.7,61,0.00,,---,0.00,VWS V14.01,2013-01-10 09:05:00,
2013-01-10 04:10:00,35.1,23.8,29.32,ESE,112,2.5,2.5,63,0.00,,---,0.00,VWS V14.01,2013-01-10 09:10:00,
2013-01-10 04:15:00,35.1,23.4,29.32,SW,225,5.8,5.8,62,0.00,,---,0.00,VWS V14.01,2013-01-10 09:15:00,
2013-01-10 04:20:00,35.1,23.0,29.32,WNW,292,3.6,3.6,61,0.00,,---,0.00,VWS V14.01,2013-01-10 09:20:00,
2013-01-10 04:25:00,35.1,23.4,29.32,NNE,22,8.5,8.5,62,0.00,,---,0.00,VWS V14.01,2013-01-10 09:25:00,
2013-01-10 04:30:00,34.9,22.8,29.32,SW,225,2.7,8.1,61,0.00,,---,0.00,VWS V14.01,2013-01-10 09:30:00,
2013-01-10 04:35:00,35.1,23.0,29.32,NNW,338,7.4,13.0,61,0.00,,---,0.00,VWS V14.01,2013-01-10 09:35:00,
2013-01-10 04:40:00,34.9,22.4,29.32,WNW,292,4.0,5.8,60,0.00,,---,0.00,VWS V14.01,2013-01-10 09:40:00,
2013-01-10 04:45:00,34.9,22.8,29.32,WNW,292,2.7,4.9,61,0.00,,---,0.00,VWS V14.01,2013-01-10 09:45:00,
2013-01-10 04:50:00,34.9,22.4,29.35,West,270,3.6,3.6,60,0.00,,---,0.00,VWS V14.01,2013-01-10 09:50:00,
2013-01-10 04:55:00,34.9,22.8,29.35,West,270,4.0,5.4,61,0.00,,---,0.00,VWS V14.01,2013-01-10 09:55:00,
2013-01-10 05:00:00,34.9,22.4,29.35,WSW,248,3.4,4.0,60,0.00,,---,0.00,VWS V14.01,2013-01-10 10:00:00,
2013-01-10 05:05:00,34.7,22.2,29.35,WNW,292,10.3,10.3,60,0.00,,---,0.00,VWS V14.01,2013-01-10 10:05:00,
2013-01-10 05:10:00,34.9,22.0,29.35,SW,225,4.0,6.5,59,0.00,,---,0.00,VWS V14.01,2013-01-10 10:10:00,
2013-01-10 05:15:00,34.9,22.0,29.35,WNW,292,7.4,7.6,59,0.00,,---,0.00,VWS V14.01,2013-01-10 10:15:00,
2013-01-10 05:20:00,34.7,21.9,29.35,WSW,248,3.1,3.4,59,0.00,,---,0.00,VWS V14.01,2013-01-10 10:20:00,
2013-01-10 05:25:00,34.9,22.0,29.35,WSW,248,4.0,8.5,59,0.00,,---,0.00,VWS V14.01,2013-01-10 10:25:00,
2013-01-10 05:30:00,34.9,21.6,29.35,South,180,3.4,4.3,58,0.00,,---,0.00,VWS V14.01,2013-01-10 10:30:00,
2013-01-10 05:35:00,34.5,21.3,29.35,SSE,158,2.9,2.9,58,0.00,,---,0.00,VWS V14.01,2013-01-10 10:35:00,
2013-01-10 05:40:00,34.5,21.7,29.35,SSW,202,5.4,5.4,59,0.00,,---,0.00,VWS V14.01,2013-01-10 10:40:00,
2013-01-10 05:45:00,34.7,21.5,29.35,SSW,202,4.3,4.3,58,0.00,,---,0.00,VWS V14.01,2013-01-10 10:45:00,
2013-01-10 05:50:00,34.5,21.7,29.35,WSW,248,4.3,4.3,59,0.00,,---,0.00,VWS V14.01,2013-01-10 10:50:00,
2013-01-10 05:55:00,34.5,21.7,29.35,WSW,248,2.2,6.0,59,0.00,,---,0.00,VWS V14.01,2013-01-10 10:55:00,
2013-01-10 06:00:00,34.3,21.5,29.35,SSE,158,2.5,2.5,59,0.00,,---,0.00,VWS V14.01,2013-01-10 11:00:00,
2013-01-10 06:05:00,34.5,21.7,29.35,WNW,292,2.9,3.8,59,0.00,,---,0.00,VWS V14.01,2013-01-10 11:05:00,
2013-01-10 06:10:00,34.5,21.3,29.35,NW,315,4.9,4.9,58,0.00,,---,0.00,VWS V14.01,2013-01-10 11:10:00,
2013-01-10 06:15:00,34.5,20.9,29.35,SSE,158,2.7,2.7,57,0.00,,---,0.00,VWS V14.01,2013-01-10 11:15:00,
2013-01-10 06:20:00,34.5,21.3,29.35,SSW,202,0.0,3.1,58,0.00,,---,0.00,VWS V14.01,2013-01-10 11:20:00,
2013-01-10 06:25:00,34.7,21.5,29.35,WSW,248,2.9,2.9,58,0.00,,---,0.00,VWS V14.01,2013-01-10 11:25:00,
2013-01-10 06:30:00,34.5,20.9,29.35,WSW,248,3.1,3.1,57,0.00,,---,0.00,VWS V14.01,2013-01-10 11:30:00,
2013-01-10 06:35:00,34.5,21.3,29.35,WSW,248,2.0,2.0,58,0.00,,---,0.00,VWS V14.01,2013-01-10 11:35:00,
2013-01-10 06:40:00,34.3,21.1,29.35,NNW,338,2.9,4.3,58,0.00,,---,0.00,VWS V14.01,2013-01-10 11:40:00,
2013-01-10 06:45:00,34.3,21.1,29.35,West,270,2.7,7.8,58,0.00,,---,0.00,VWS V14.01,2013-01-10 11:45:00,
2013-01-10 06:50:00,34.3,20.7,29.35,North,0,2.7,4.3,57,0.00,,---,0.00,VWS V14.01,2013-01-10 11:50:00,
2013-01-10 06:55:00,34.3,20.7,29.35,SW,225,5.6,5.6,57,0.00,,---,0.00,VWS V14.01,2013-01-10 11:55:00,
2013-01-10 07:00:00,34.3,20.7,29.35,SW,225,2.2,2.2,57,0.00,,---,0.00,VWS V14.01,2013-01-10 12:00:00,
2013-01-10 07:05:00,34.3,20.7,29.38,NE,45,2.9,2.9,57,0.00,,---,0.00,VWS V14.01,2013-01-10 12:05:00,
2013-01-10 07:10:00,34.0,20.4,29.38,WSW,248,3.1,3.1,57,0.00,,---,0.00,VWS V14.01,2013-01-10 12:10:00,
2013-01-10 07:15:00,33.8,20.6,29.38,WNW,292,6.5,6.5,58,0.00,,---,0.00,VWS V14.01,2013-01-10 12:15:00,
2013-01-10 07:20:00,34.0,20.4,29.38,WSW,248,2.5,2.5,57,0.00,,---,0.00,VWS V14.01,2013-01-10 12:20:00,
2013-01-10 07:25:00,34.2,20.9,29.38,SSW,202,5.8,5.8,58,0.00,,---,0.00,VWS V14.01,2013-01-10 12:25:00,
2013-01-10 07:30:00,34.0,20.8,29.38,West,270,4.0,4.0,58,0.00,,---,0.00,VWS V14.01,2013-01-10 12:30:00,
2013-01-10 07:35:00,33.8,20.2,29.41,WNW,292,3.6,3.6,57,0.00,,---,0.00,VWS V14.01,2013-01-10 12:35:00,
2013-01-10 07:40:00,33.6,20.4,29.41,South,180,2.2,2.2,58,0.00,,---,0.00,VWS V14.01,2013-01-10 12:40:00,
2013-01-10 07:45:00,33.8,20.2,29.41,NNE,22,3.8,3.8,57,0.00,,---,0.00,VWS V14.01,2013-01-10 12:45:00,
2013-01-10 07:50:00,33.8,20.2,29.41,NW,315,2.5,2.5,57,0.00,,---,0.00,VWS V14.01,2013-01-10 12:50:00,
2013-01-10 07:55:00,33.8,20.2,29.41,SE,135,7.2,7.2,57,0.00,,---,0.00,VWS V14.01,2013-01-10 12:55:00,
2013-01-10 08:00:00,33.8,20.2,29.41,SW,225,3.4,3.4,57,0.00,,---,0.00,VWS V14.01,2013-01-10 13:00:00,
2013-01-10 08:05:00,34.2,20.1,29.44,NNW,338,3.6,10.7,56,0.00,,---,0.00,VWS V14.01,2013-01-10 13:05:00,
2013-01-10 08:10:00,34.0,20.0,29.44,SE,135,1.6,1.6,56,0.00,,---,0.00,VWS V14.01,2013-01-10 13:10:00,
2013-01-10 08:15:00,34.3,20.3,29.44,NW,315,8.5,8.5,56,0.00,,---,0.00,VWS V14.01,2013-01-10 13:15:00,
2013-01-10 08:20:00,34.0,20.0,29.44,WSW,248,9.0,9.0,56,0.00,,---,0.00,VWS V14.01,2013-01-10 13:20:00,
2013-01-10 08:25:00,34.2,19.7,29.44,West,270,2.9,3.1,55,0.00,,---,0.00,VWS V14.01,2013-01-10 13:25:00,
2013-01-10 08:30:00,34.3,19.9,29.44,WNW,292,3.8,4.5,55,0.00,,---,0.00,VWS V14.01,2013-01-10 13:30:00,
2013-01-10 08:35:00,34.3,19.9,29.44,SE,135,5.6,5.6,55,0.00,,---,0.00,VWS V14.01,2013-01-10 13:35:00,
2013-01-10 08:40:00,34.7,20.2,29.44,WNW,292,4.3,4.3,55,0.00,,---,0.00,VWS V14.01,2013-01-10 13:40:00,
2013-01-10 08:45:00,34.5,20.0,29.44,SE,135,2.0,2.0,55,0.00,,---,0.00,VWS V14.01,2013-01-10 13:45:00,
2013-01-10 08:50:00,34.9,20.4,29.44,SSW,202,2.5,2.5,55,0.00,,---,0.00,VWS V14.01,2013-01-10 13:50:00,
2013-01-10 08:55:00,34.7,19.8,29.44,SSW,202,2.2,2.2,54,0.00,,---,0.00,VWS V14.01,2013-01-10 13:55:00,
2013-01-10 09:00:00,34.7,20.2,29.44,SSW,202,2.5,2.5,55,0.00,,---,0.00,VWS V14.01,2013-01-10 14:00:00,
2013-01-10 09:05:00,34.9,20.4,29.44,WSW,248,3.4,3.4,55,0.00,,---,0.00,VWS V14.01,2013-01-10 14:05:00,
2013-01-10 09:10:00,35.1,20.5,29.44,WNW,292,3.8,5.8,55,0.00,,---,0.00,VWS V14.01,2013-01-10 14:10:00,
2013-01-10 09:15:00,35.1,20.5,29.47,SSW,202,2.7,3.6,55,0.00,,---,0.00,VWS V14.01,2013-01-10 14:15:00,
2013-01-10 09:19:00,35.1,20.5,29.47,ESE,112,2.7,2.7,55,0.00,,---,0.00,VWS V14.01,2013-01-10 14:19:00,
2013-01-10 09:24:00,35.2,20.7,29.47,SSW,202,3.6,3.6,55,0.00,,---,0.00,VWS V14.01,2013-01-10 14:24:00,
2013-01-10 09:29:00,35.2,20.3,29.47,WNW,292,4.3,4.3,54,0.00,,---,0.00,VWS V14.01,2013-01-10 14:29:00,
2013-01-10 09:34:00,35.1,20.1,29.50,WNW,292,1.3,8.7,54,0.00,,---,0.00,VWS V14.01,2013-01-10 14:34:00,
2013-01-10 09:39:00,35.1,20.1,29.50,NNW,338,2.9,2.9,54,0.00,,---,0.00,VWS V14.01,2013-01-10 14:39:00,
2013-01-10 09:44:00,35.2,20.3,29.50,NNE,22,2.0,3.1,54,0.00,,---,0.00,VWS V14.01,2013-01-10 14:44:00,
2013-01-10 09:49:00,35.1,20.1,29.50,NNW,338,3.8,3.8,54,0.00,,---,0.00,VWS V14.01,2013-01-10 14:49:00,
2013-01-10 09:54:00,35.4,20.4,29.50,ESE,112,2.9,2.9,54,0.00,,---,0.00,VWS V14.01,2013-01-10 14:54:00,
2013-01-10 09:59:00,35.4,20.4,29.50,ESE,112,2.5,3.1,54,0.00,,---,0.00,VWS V14.01,2013-01-10 14:59:00,
2013-01-10 10:04:00,35.2,20.3,29.53,SSE,158,4.3,4.9,54,0.00,,---,0.00,VWS V14.01,2013-01-10 15:04:00,
2013-01-10 10:09:00,35.4,20.4,29.53,ESE,112,3.1,3.1,54,0.00,,---,0.00,VWS V14.01,2013-01-10 15:09:00,
2013-01-10 10:14:00,35.6,20.2,29.53,SSW,202,2.0,2.0,53,0.00,,---,0.00,VWS V14.01,2013-01-10 15:14:00,
2013-01-10 10:19:00,35.6,20.2,29.53,WSW,248,3.1,3.4,53,0.00,,---,0.00,VWS V14.01,2013-01-10 15:19:00,
2013-01-10 10:24:00,35.6,20.2,29.53,NW,315,2.5,2.5,53,0.00,,---,0.00,VWS V14.01,2013-01-10 15:24:00,
2013-01-10 10:29:00,35.6,20.2,29.53,SSW,202,2.0,2.0,53,0.00,,---,0.00,VWS V14.01,2013-01-10 15:29:00,
2013-01-10 10:34:00,35.8,20.3,29.53,NNW,338,2.2,6.0,53,0.00,,---,0.00,VWS V14.01,2013-01-10 15:34:00,
2013-01-10 10:39:00,35.8,19.9,29.53,South,180,2.2,2.2,52,0.00,,---,0.00,VWS V14.01,2013-01-10 15:39:00,
2013-01-10 10:44:00,36.1,20.2,29.53,SSW,202,2.2,2.2,52,0.00,,---,0.00,VWS V14.01,2013-01-10 15:44:00,
2013-01-10 10:49:00,36.1,20.2,29.53,NW,315,0.9,0.9,52,0.00,,---,0.00,VWS V14.01,2013-01-10 15:49:00,
2013-01-10 10:54:00,36.0,20.1,29.53,SSW,202,2.5,2.5,52,0.00,,---,0.00,VWS V14.01,2013-01-10 15:54:00,
2013-01-10 10:59:00,36.1,19.8,29.53,South,180,1.3,2.5,51,0.00,,---,0.00,VWS V14.01,2013-01-10 15:59:00,
2013-01-10 11:04:00,36.3,20.4,29.53,SSW,202,2.5,2.5,52,0.00,,---,0.00,VWS V14.01,2013-01-10 16:04:00,
2013-01-10 11:09:00,36.3,19.9,29.53,NNE,22,2.7,2.7,51,0.00,,---,0.00,VWS V14.01,2013-01-10 16:09:00,
2013-01-10 11:14:00,36.7,20.3,29.53,WSW,248,3.1,3.1,51,0.00,,---,0.00,VWS V14.01,2013-01-10 16:14:00,
2013-01-10 11:19:00,36.3,19.5,29.53,WNW,292,9.0,9.0,50,0.00,,---,0.00,VWS V14.01,2013-01-10 16:19:00,
2013-01-10 11:24:00,36.7,20.3,29.53,SSW,202,0.0,0.0,51,0.00,,---,0.00,VWS V14.01,2013-01-10 16:24:00,
2013-01-10 11:29:00,36.7,19.8,29.53,NNE,22,3.8,3.8,50,0.00,,---,0.00,VWS V14.01,2013-01-10 16:29:00,
2013-01-10 11:34:00,36.9,20.0,29.53,South,180,3.1,6.0,50,0.00,,---,0.00,VWS V14.01,2013-01-10 16:34:00,
2013-01-10 11:39:00,37.0,20.6,29.53,WNW,292,2.7,3.1,51,0.00,,---,0.00,VWS V14.01,2013-01-10 16:39:00,
2013-01-10 11:44:00,36.7,20.3,29.53,WSW,248,2.7,4.0,51,0.00,,---,0.00,VWS V14.01,2013-01-10 16:44:00,
2013-01-10 11:49:00,36.7,20.3,29.53,WSW,248,3.6,6.0,51,0.00,,---,0.00,VWS V14.01,2013-01-10 16:49:00,
2013-01-10 11:54:00,36.5,20.1,29.53,South,180,3.4,3.4,51,0.00,,---,0.00,VWS V14.01,2013-01-10 16:54:00,
2013-01-10 11:59:00,36.9,20.0,29.53,SW,225,6.0,6.0,50,0.00,,---,0.00,VWS V14.01,2013-01-10 16:59:00,
2013-01-10 12:04:00,36.7,19.8,29.53,WSW,248,2.5,4.0,50,0.00,,---,0.00,VWS V14.01,2013-01-10 17:04:00,
2013-01-10 12:09:00,36.9,20.0,29.56,WSW,248,3.1,3.1,50,0.00,,---,0.00,VWS V14.01,2013-01-10 17:09:00,
2013-01-10 12:14:00,36.7,19.8,29.56,WSW,248,7.6,7.6,50,0.00,,---,0.00,VWS V14.01,2013-01-10 17:14:00,
2013-01-10 12:19:00,36.7,19.8,29.56,WNW,292,3.6,3.6,50,0.00,,---,0.00,VWS V14.01,2013-01-10 17:19:00,
2013-01-10 12:24:00,37.2,20.3,29.53,NNW,338,2.0,2.7,50,0.00,,---,0.00,VWS V14.01,2013-01-10 17:24:00,
2013-01-10 12:29:00,37.0,20.1,29.53,SSW,202,3.4,3.6,50,0.00,,---,0.00,VWS V14.01,2013-01-10 17:29:00,
2013-01-10 12:34:00,37.2,20.3,29.53,WNW,292,6.9,6.9,50,0.00,,---,0.00,VWS V14.01,2013-01-10 17:34:00,
2013-01-10 12:39:00,37.2,20.3,29.53,WSW,248,6.3,6.3,50,0.00,,---,0.00,VWS V14.01,2013-01-10 17:39:00,
2013-01-10 12:44:00,37.6,20.2,29.53,NW,315,5.6,5.6,49,0.00,,---,0.00,VWS V14.01,2013-01-10 17:44:00,
2013-01-10 12:49:00,37.4,20.0,29.53,WSW,248,3.6,3.6,49,0.00,,---,0.00,VWS V14.01,2013-01-10 17:49:00,
2013-01-10 12:54:00,37.2,20.3,29.53,WSW,248,4.3,4.3,50,0.00,,---,0.00,VWS V14.01,2013-01-10 17:54:00,
2013-01-10 12:59:00,37.2,19.8,29.53,SW,225,2.5,2.5,49,0.00,,---,0.00,VWS V14.01,2013-01-10 17:59:00,
2013-01-10 13:04:00,37.4,20.0,29.53,ENE,68,3.6,3.6,49,0.00,,---,0.00,VWS V14.01,2013-01-10 18:04:00,
2013-01-10 13:09:00,37.2,19.8,29.56,West,270,5.4,8.1,49,0.00,,---,0.00,VWS V14.01,2013-01-10 18:09:00,
2013-01-10 13:14:00,37.0,19.2,29.56,WNW,292,5.8,5.8,48,0.04,,---,0.04,VWS V14.01,2013-01-10 18:14:00,
2013-01-10 13:19:00,36.9,19.5,29.56,South,180,1.6,3.4,49,0.04,,---,0.04,VWS V14.01,2013-01-10 18:19:00,
2013-01-10 13:24:00,37.0,19.7,29.56,SW,225,2.9,2.9,49,0.04,,---,0.04,VWS V14.01,2013-01-10 18:24:00,
2013-01-10 13:29:00,37.0,19.7,29.56,WSW,248,3.8,3.8,49,0.04,,---,0.04,VWS V14.01,2013-01-10 18:29:00,
2013-01-10 13:34:00,36.9,19.5,29.56,WNW,292,2.9,4.0,49,0.04,,---,0.04,VWS V14.01,2013-01-10 18:34:00,
2013-01-10 13:39:00,36.7,19.3,29.56,NW,315,3.4,4.3,49,0.04,,---,0.04,VWS V14.01,2013-01-10 18:39:00,
2013-01-10 13:44:00,36.7,19.8,29.56,NW,315,2.2,2.2,50,0.04,,---,0.04,VWS V14.01,2013-01-10 18:44:00,
2013-01-10 13:49:00,36.7,19.3,29.56,West,270,2.5,3.4,49,0.04,,---,0.04,VWS V14.01,2013-01-10 18:49:00,
2013-01-10 13:54:00,36.7,19.8,29.56,ESE,112,2.0,2.0,50,0.04,,---,0.04,VWS V14.01,2013-01-10 18:54:00,
2013-01-10 13:59:00,36.9,20.0,29.56,NW,315,0.9,0.9,50,0.04,,---,0.04,VWS V14.01,2013-01-10 18:59:00,
2013-01-10 14:04:00,36.9,19.5,29.56,SW,225,1.1,2.0,49,0.04,,---,0.04,VWS V14.01,2013-01-10 19:04:00,
2013-01-10 14:09:00,36.9,19.0,29.56,SSE,158,0.0,0.0,48,0.04,,---,0.04,VWS V14.01,2013-01-10 19:09:00,
2013-01-10 14:14:00,36.7,19.3,29.56,ENE,68,0.0,1.3,49,0.00,,---,0.04,VWS V14.01,2013-01-10 19:14:00,
2013-01-10 14:19:00,36.7,19.8,29.56,SW,225,2.0,2.0,50,0.00,,---,0.04,VWS V14.01,2013-01-10 19:19:00,
2013-01-10 14:24:00,36.5,19.6,29.59,WNW,292,2.0,2.0,50,0.00,,---,0.04,VWS V14.01,2013-01-10 19:24:00,
2013-01-10 14:29:00,36.7,19.8,29.59,ESE,112,0.0,0.0,50,0.00,,---,0.04,VWS V14.01,2013-01-10 19:29:00,
2013-01-10 14:34:00,36.3,19.5,29.59,WNW,292,0.9,2.7,50,0.00,,---,0.04,VWS V14.01,2013-01-10 19:34:00,
2013-01-10 14:39:00,36.5,19.6,29.59,NNW,338,5.6,5.6,50,0.00,,---,0.04,VWS V14.01,2013-01-10 19:39:00,
2013-01-10 14:44:00,36.5,19.6,29.59,WNW,292,1.6,1.6,50,0.00,,---,0.04,VWS V14.01,2013-01-10 19:44:00,
2013-01-10 14:49:00,36.5,19.6,29.59,West,270,2.0,2.0,50,0.00,,---,0.04,VWS V14.01,2013-01-10 19:49:00,
2013-01-10 14:54:00,36.3,19.0,29.59,West,270,1.3,2.0,49,0.00,,---,0.04,VWS V14.01,2013-01-10 19:54:00,
2013-01-10 14:59:00,36.3,19.5,29.59,NNW,338,2.2,2.2,50,0.00,,---,0.04,VWS V14.01,2013-01-10 19:59:00,
2013-01-10 15:04:00,36.3,19.0,29.59,NW,315,2.7,6.7,49,0.00,,---,0.04,VWS V14.01,2013-01-10 20:04:00,
2013-01-10 15:09:00,36.3,19.0,29.59,WNW,292,1.6,1.6,49,0.00,,---,0.04,VWS V14.01,2013-01-10 20:09:00,
2013-01-10 15:14:00,36.1,18.8,29.59,WNW,292,2.0,4.0,49,0.00,,---,0.04,VWS V14.01,2013-01-10 20:14:00,
2013-01-10 15:19:00,36.0,18.7,29.59,West,270,2.9,3.1,49,0.00,,---,0.04,VWS V14.01,2013-01-10 20:19:00,
2013-01-10 15:24:00,35.8,18.5,29.59,SSW,202,2.2,2.2,49,0.00,,---,0.04,VWS V14.01,2013-01-10 20:24:00,
2013-01-10 15:29:00,35.6,17.9,29.59,NW,315,3.1,3.4,48,0.00,,---,0.04,VWS V14.01,2013-01-10 20:29:00,
2013-01-10 15:34:00,35.4,17.7,29.59,WNW,292,1.6,3.8,48,0.00,,---,0.04,VWS V14.01,2013-01-10 20:34:00,
2013-01-10 15:39:00,34.9,18.1,29.62,NNE,22,2.2,5.6,50,0.00,,---,0.04,VWS V14.01,2013-01-10 20:39:00,
2013-01-10 15:44:00,35.1,17.8,29.62,WSW,248,2.9,2.9,49,0.00,,---,0.04,VWS V14.01,2013-01-10 20:44:00,
2013-01-10 15:49:00,35.1,17.8,29.62,SSW,202,3.4,3.4,49,0.00,,---,0.04,VWS V14.01,2013-01-10 20:49:00,
2013-01-10 15:54:00,35.1,17.8,29.62,WSW,248,2.9,2.9,49,0.00,,---,0.04,VWS V14.01,2013-01-10 20:54:00,
2013-01-10 15:59:00,35.1,17.8,29.62,SSW,202,3.1,3.1,49,0.00,,---,0.04,VWS V14.01,2013-01-10 20:59:00,
2013-01-10 16:04:00,34.9,18.1,29.62,SSW,202,0.0,0.0,50,0.00,,---,0.04,VWS V14.01,2013-01-10 21:04:00,
2013-01-10 16:09:00,34.7,18.0,29.62,SW,225,2.7,2.7,50,0.00,,---,0.04,VWS V14.01,2013-01-10 21:09:00,
2013-01-10 16:14:00,34.9,18.1,29.62,WSW,248,1.3,2.2,50,0.00,,---,0.04,VWS V14.01,2013-01-10 21:14:00,
2013-01-10 16:19:00,34.5,17.8,29.62,South,180,0.0,0.0,50,0.00,,---,0.04,VWS V14.01,2013-01-10 21:19:00,
2013-01-10 16:24:00,34.5,17.8,29.65,NNW,338,2.7,2.7,50,0.00,,---,0.04,VWS V14.01,2013-01-10 21:24:00,
2013-01-10 16:29:00,34.5,17.8,29.65,West,270,1.3,1.3,50,0.00,,---,0.04,VWS V14.01,2013-01-10 21:29:00,
2013-01-10 16:34:00,34.3,17.6,29.65,ENE,68,1.1,1.1,50,0.00,,---,0.04,VWS V14.01,2013-01-10 21:34:00,
2013-01-10 16:39:00,34.2,17.9,29.65,SSW,202,2.0,2.0,51,0.00,,---,0.04,VWS V14.01,2013-01-10 21:39:00,
2013-01-10 16:44:00,34.2,17.9,29.65,ESE,112,0.9,0.9,51,0.00,,---,0.04,VWS V14.01,2013-01-10 21:44:00,
2013-01-10 16:49:00,33.8,17.6,29.65,ESE,112,0.0,0.0,51,0.00,,---,0.04,VWS V14.01,2013-01-10 21:49:00,
2013-01-10 16:54:00,33.8,18.0,29.65,North,0,1.3,1.3,52,0.00,,---,0.04,VWS V14.01,2013-01-10 21:54:00,
2013-01-10 16:59:00,33.8,17.6,29.65,WNW,292,1.6,1.6,51,0.00,,---,0.04,VWS V14.01,2013-01-10 21:59:00,
2013-01-10 17:04:00,33.6,17.9,29.65,WNW,292,1.3,1.3,52,0.00,,---,0.04,VWS V14.01,2013-01-10 22:04:00,
2013-01-10 17:09:00,33.3,17.5,29.65,East,90,0.0,0.0,52,0.00,,---,0.04,VWS V14.01,2013-01-10 22:09:00,
2013-01-10 17:14:00,33.3,17.5,29.65,East,90,0.0,1.3,52,0.00,,---,0.04,VWS V14.01,2013-01-10 22:14:00,
2013-01-10 17:19:00,33.3,17.5,29.65,East,90,0.0,0.0,52,0.00,,---,0.04,VWS V14.01,2013-01-10 22:19:00,
2013-01-10 17:24:00,32.5,17.3,29.65,NNE,22,0.0,0.0,53,0.00,,---,0.04,VWS V14.01,2013-01-10 22:24:00,
2013-01-10 17:29:00,32.4,17.1,29.65,ESE,112,1.3,2.0,53,0.00,,---,0.04,VWS V14.01,2013-01-10 22:29:00,
2013-01-10 17:34:00,32.5,17.3,29.65,WNW,292,4.0,4.0,53,0.00,,---,0.04,VWS V14.01,2013-01-10 22:34:00,
2013-01-10 17:39:00,32.7,17.5,29.65,East,90,1.6,1.6,53,0.00,,---,0.04,VWS V14.01,2013-01-10 22:39:00,
2013-01-10 17:44:00,32.5,17.3,29.65,SSE,158,0.0,0.0,53,0.00,,---,0.04,VWS V14.01,2013-01-10 22:44:00,
2013-01-10 17:49:00,32.5,17.3,29.65,ESE,112,2.0,2.0,53,0.00,,---,0.04,VWS V14.01,2013-01-10 22:49:00,
2013-01-10 17:54:00,32.5,17.3,29.65,ESE,112,2.0,3.4,53,0.00,,---,0.04,VWS V14.01,2013-01-10 22:54:00,
2013-01-10 17:59:00,33.4,18.2,29.65,WNW,292,1.1,3.1,53,0.00,,---,0.04,VWS V14.01,2013-01-10 22:59:00,
2013-01-10 18:04:00,33.6,18.3,29.65,SSE,158,0.0,1.6,53,0.00,,---,0.04,VWS V14.01,2013-01-10 23:04:00,
2013-01-10 18:09:00,33.3,18.0,29.68,SSE,158,0.0,0.0,53,0.00,,---,0.04,VWS V14.01,2013-01-10 23:09:00,
2013-01-10 18:14:00,33.3,18.4,29.68,SE,135,0.0,0.0,54,0.00,,---,0.04,VWS V14.01,2013-01-10 23:14:00,
2013-01-10 18:19:00,33.3,18.4,29.68,WNW,292,0.0,0.0,54,0.00,,---,0.04,VWS V14.01,2013-01-10 23:19:00,
2013-01-10 18:24:00,33.3,18.4,29.68,WNW,292,0.0,0.0,54,0.00,,---,0.04,VWS V14.01,2013-01-10 23:24:00,
2013-01-10 18:29:00,33.3,18.4,29.68,NNW,338,3.8,3.8,54,0.00,,---,0.04,VWS V14.01,2013-01-10 23:29:00,
2013-01-10 18:34:00,33.1,18.3,29.68,NNW,338,0.0,2.2,54,0.00,,---,0.04,VWS V14.01,2013-01-10 23:34:00,
2013-01-10 18:39:00,33.3,18.4,29.65,North,0,0.0,0.0,54,0.00,,---,0.04,VWS V14.01,2013-01-10 23:39:00,
2013-01-10 18:44:00,33.3,18.4,29.65,NNE,22,2.2,2.2,54,0.00,,---,0.04,VWS V14.01,2013-01-10 23:44:00,
2013-01-10 18:49:00,33.1,18.7,29.65,WNW,292,0.0,0.0,55,0.00,,---,0.04,VWS V14.01,2013-01-10 23:49:00,
2013-01-10 18:54:00,33.1,18.7,29.65,WNW,292,0.0,0.0,55,0.00,,---,0.04,VWS V14.01,2013-01-10 23:54:00,
2013-01-10 18:59:00,32.9,18.5,29.65,WNW,292,1.3,1.3,55,0.00,,---,0.04,VWS V14.01,2013-01-10 23:59:00,
2013-01-10 19:04:00,32.7,18.4,29.65,WNW,292,1.1,1.1,55,0.00,,---,0.04,VWS V14.01,2013-01-11 00:04:00,
2013-01-10 19:09:00,32.7,18.8,29.65,WNW,292,0.0,0.0,56,0.00,,---,0.04,VWS V14.01,2013-01-11 00:09:00,
2013-01-10 19:14:00,32.5,18.6,29.65,WNW,292,0.0,0.0,56,0.00,,---,0.04,VWS V14.01,2013-01-11 00:14:00,
2013-01-10 19:19:00,32.5,18.6,29.65,WNW,292,0.0,0.0,56,0.00,,---,0.04,VWS V14.01,2013-01-11 00:19:00,
2013-01-10 19:24:00,32.5,19.0,29.65,WNW,292,0.0,0.0,57,0.00,,---,0.04,VWS V14.01,2013-01-11 00:24:00,
2013-01-10 19:29:00,32.5,19.0,29.65,WNW,292,0.0,0.0,57,0.00,,---,0.04,VWS V14.01,2013-01-11 00:29:00,
2013-01-10 19:34:00,32.4,18.8,29.65,WNW,292,0.0,0.0,57,0.00,,---,0.04,VWS V14.01,2013-01-11 00:34:00,
2013-01-10 19:39:00,32.5,19.0,29.65,NNW,338,0.0,0.0,57,0.00,,---,0.04,VWS V14.01,2013-01-11 00:39:00,
2013-01-10 19:44:00,32.2,18.7,29.65,NNW,338,0.0,0.0,57,0.00,,---,0.04,VWS V14.01,2013-01-11 00:44:00,
2013-01-10 19:49:00,32.2,18.7,29.65,NNW,338,0.0,0.0,57,0.00,,---,0.04,VWS V14.01,2013-01-11 00:49:00,
2013-01-10 19:54:00,32.2,18.7,29.65,NNW,338,0.0,0.0,57,0.00,,---,0.04,VWS V14.01,2013-01-11 00:54:00,
2013-01-10 19:59:00,32.2,19.1,29.65,NNW,338,0.0,0.0,58,0.00,,---,0.04,VWS V14.01,2013-01-11 00:59:00,
2013-01-10 20:04:00,32.0,18.9,29.65,NNW,338,0.0,0.0,58,0.00,,---,0.04,VWS V14.01,2013-01-11 01:04:00,
2013-01-10 20:09:00,32.0,18.9,29.65,NNW,338,0.0,0.0,58,0.00,,---,0.04,VWS V14.01,2013-01-11 01:09:00,
2013-01-10 20:14:00,31.8,18.7,29.65,NNW,338,0.0,0.0,58,0.00,,---,0.04,VWS V14.01,2013-01-11 01:14:00,
2013-01-10 20:19:00,31.6,18.6,29.65,NNW,338,0.0,0.0,58,0.00,,---,0.04,VWS V14.01,2013-01-11 01:19:00,
2013-01-10 20:24:00,31.5,18.4,29.65,NNW,338,0.0,0.0,58,0.00,,---,0.04,VWS V14.01,2013-01-11 01:24:00,
2013-01-10 20:29:00,31.1,18.5,29.65,NNW,338,0.0,0.0,59,0.00,,---,0.04,VWS V14.01,2013-01-11 01:29:00,
2013-01-10 20:34:00,30.6,18.0,29.65,NNW,338,0.0,0.0,59,0.00,,---,0.04,VWS V14.01,2013-01-11 01:34:00,
2013-01-10 20:39:00,30.0,17.4,29.65,North,0,0.0,0.0,59,0.00,,---,0.04,VWS V14.01,2013-01-11 01:39:00,
2013-01-10 20:44:00,30.2,17.6,29.65,North,0,0.0,0.0,59,0.00,,---,0.04,VWS V14.01,2013-01-11 01:44:00,
2013-01-10 20:49:00,30.2,18.0,29.65,North,0,0.0,0.0,60,0.00,,---,0.04,VWS V14.01,2013-01-11 01:49:00,
2013-01-10 20:54:00,30.0,17.8,29.65,NNW,338,0.0,1.6,60,0.00,,---,0.04,VWS V14.01,2013-01-11 01:54:00,
2013-01-10 20:59:00,30.4,18.2,29.65,WNW,292,0.0,0.0,60,0.00,,---,0.04,VWS V14.01,2013-01-11 01:59:00,
2013-01-10 21:04:00,30.4,17.8,29.65,WNW,292,0.0,0.0,59,0.00,,---,0.04,VWS V14.01,2013-01-11 02:04:00,
2013-01-10 21:09:00,30.2,18.0,29.65,WNW,292,0.0,0.0,60,0.00,,---,0.04,VWS V14.01,2013-01-11 02:09:00,
2013-01-10 21:14:00,29.8,17.7,29.65,NNW,338,1.3,1.3,60,0.00,,---,0.04,VWS V14.01,2013-01-11 02:14:00,
2013-01-10 21:19:00,29.7,17.5,29.65,NW,315,0.0,0.0,60,0.00,,---,0.04,VWS V14.01,2013-01-11 02:19:00,
2013-01-10 21:24:00,29.7,17.5,29.65,NNW,338,0.0,0.0,60,0.00,,---,0.04,VWS V14.01,2013-01-11 02:24:00,
2013-01-10 21:29:00,29.8,17.7,29.65,NNW,338,0.0,0.0,60,0.00,,---,0.04,VWS V14.01,2013-01-11 02:29:00,
2013-01-10 21:34:00,29.5,17.3,29.68,NNW,338,0.0,0.0,60,0.00,,---,0.04,VWS V14.01,2013-01-11 02:34:00,
2013-01-10 21:39:00,29.3,17.1,29.68,NNW,338,0.0,0.0,60,0.00,,---,0.04,VWS V14.01,2013-01-11 02:39:00,
2013-01-10 21:45:00,29.1,17.4,29.68,NNW,338,0.0,0.0,61,0.00,,---,0.04,VWS V14.01,2013-01-11 02:45:00,
2013-01-10 21:50:00,28.8,17.0,29.65,NNW,338,0.0,0.0,61,0.00,,---,0.04,VWS V14.01,2013-01-11 02:50:00,
2013-01-10 21:54:00,28.6,16.9,29.65,NNW,338,0.0,0.0,61,0.00,,---,0.04,VWS V14.01,2013-01-11 02:54:00,
2013-01-10 21:59:00,28.6,17.2,29.65,NNW,338,0.0,0.0,62,0.00,,---,0.04,VWS V14.01,2013-01-11 02:59:00,
2013-01-10 22:04:00,28.6,17.2,29.68,NNW,338,0.0,0.0,62,0.00,,---,0.04,VWS V14.01,2013-01-11 03:04:00,
2013-01-10 22:09:00,28.2,16.9,29.68,NNW,338,0.0,0.0,62,0.00,,---,0.04,VWS V14.01,2013-01-11 03:09:00,
2013-01-10 22:14:00,27.5,16.2,29.68,NNW,338,0.0,0.0,62,0.00,,---,0.04,VWS V14.01,2013-01-11 03:14:00,
2013-01-10 22:19:00,27.3,16.0,29.65,NNW,338,0.0,0.0,62,0.00,,---,0.04,VWS V14.01,2013-01-11 03:19:00,
2013-01-10 22:24:00,27.1,15.9,29.65,NNW,338,0.0,0.0,62,0.00,,---,0.04,VWS V14.01,2013-01-11 03:24:00,
2013-01-10 22:30:00,26.8,15.5,29.65,NNW,338,0.0,0.0,62,0.00,,---,0.04,VWS V14.01,2013-01-11 03:30:00,
2013-01-10 22:35:00,27.0,15.7,29.65,NNW,338,0.0,0.0,62,0.00,,---,0.04,VWS V14.01,2013-01-11 03:35:00,
2013-01-10 22:40:00,26.6,15.7,29.65,NNW,338,0.0,0.0,63,0.00,,---,0.04,VWS V14.01,2013-01-11 03:40:00,
2013-01-10 22:45:00,26.4,15.6,29.65,NNW,338,0.0,0.0,63,0.00,,---,0.04,VWS V14.01,2013-01-11 03:45:00,
2013-01-10 22:50:00,26.6,15.7,29.65,NNW,338,0.0,0.0,63,0.00,,---,0.04,VWS V14.01,2013-01-11 03:50:00,
2013-01-10 22:55:00,26.1,15.2,29.65,NNW,338,0.0,0.0,63,0.00,,---,0.04,VWS V14.01,2013-01-11 03:55:00,
2013-01-10 23:00:00,26.2,15.4,29.65,NNW,338,0.0,0.0,63,0.00,,---,0.04,VWS V14.01,2013-01-11 04:00:00,
2013-01-10 23:05:00,26.1,15.2,29.65,NNW,338,0.0,0.0,63,0.00,,---,0.04,VWS V14.01,2013-01-11 04:05:00,
2013-01-10 23:10:00,25.5,15.1,29.65,NNW,338,0.0,0.0,64,0.00,,---,0.04,VWS V14.01,2013-01-11 04:10:00,
2013-01-10 23:15:00,25.0,14.2,29.65,NNW,338,0.0,0.0,63,0.00,,---,0.04,VWS V14.01,2013-01-11 04:15:00,
2013-01-10 23:20:00,25.0,14.5,29.65,NNW,338,0.0,0.0,64,0.00,,---,0.04,VWS V14.01,2013-01-11 04:20:00,
2013-01-10 23:25:00,25.0,14.5,29.65,NNW,338,0.0,0.0,64,0.00,,---,0.04,VWS V14.01,2013-01-11 04:25:00,
2013-01-10 23:30:00,24.8,14.7,29.65,NNW,338,0.0,0.0,65,0.00,,---,0.04,VWS V14.01,2013-01-11 04:30:00,
2013-01-10 23:35:00,24.4,14.4,29.68,NNW,338,0.0,0.0,65,0.00,,---,0.04,VWS V14.01,2013-01-11 04:35:00,
2013-01-10 23:40:00,24.4,14.4,29.68,NNW,338,0.0,0.0,65,0.00,,---,0.04,VWS V14.01,2013-01-11 04:40:00,
2013-01-10 23:45:00,24.1,14.0,29.68,NNW,338,0.0,0.0,65,0.00,,---,0.04,VWS V14.01,2013-01-11 04:45:00,
2013-01-10 23:50:00,24.4,14.7,29.68,NNW,338,0.0,0.0,66,0.00,,---,0.04,VWS V14.01,2013-01-11 04:50:00,
2013-01-10 23:55:00,23.9,14.2,29.68,NNW,338,0.0,0.0,66,0.00,,---,0.04,VWS V14.01,2013-01-11 04:55:00,